N341SW KOWB-KOWB

Flight info

Callsign N341SW
Flight time 0h 27m
Altitude 3000
Route
Aircraft TBM8/L-DOV/C

Departure

Time 2026-05-06 04:31
Airport Owensboro Daviess County Airport (KOWB)

Arrival

Time 2026-05-06 04:59
Airport Owensboro Daviess County Airport (KOWB)
Time Latitude Longitude Altitude Speed Heading
2026-05-06 04:19 37.73841 -87.16425 406 ft 0 kts 268°
2026-05-06 04:25 37.73840 -87.16430 406 ft 0 kts 259°
2026-05-06 04:25 37.73832 -87.16441 406 ft 0 kts 194°
2026-05-06 04:27 37.73806 -87.16448 406 ft 10 kts 196°
2026-05-06 04:27 37.73775 -87.16526 406 ft 10 kts 230°
2026-05-06 04:27 37.73696 -87.16537 405 ft 15 kts 177°
2026-05-06 04:28 37.73583 -87.16532 405 ft 16 kts 179°
2026-05-06 04:28 37.73476 -87.16525 405 ft 15 kts 177°
2026-05-06 04:28 37.73370 -87.16520 404 ft 16 kts 178°
2026-05-06 04:28 37.73240 -87.16514 404 ft 21 kts 177°
2026-05-06 04:29 37.73094 -87.16506 403 ft 20 kts 177°
2026-05-06 04:29 37.72959 -87.16499 403 ft 18 kts 179°
2026-05-06 04:29 37.72836 -87.16492 402 ft 17 kts 178°
2026-05-06 04:29 37.72741 -87.16494 402 ft 9 kts 200°
2026-05-06 04:30 37.72715 -87.16528 402 ft 3 kts 255°
2026-05-06 04:30 37.72712 -87.16579 402 ft 10 kts 268°
2026-05-06 04:30 37.72723 -87.16659 402 ft 7 kts 312°
2026-05-06 04:30 37.72801 -87.16675 402 ft 27 kts 356°
2026-05-06 04:31 37.73187 -87.16693 403 ft 83 kts 358°
2026-05-06 04:31 37.73867 -87.16720 576 ft 108 kts 356°
2026-05-06 04:31 37.74679 -87.16769 893 ft 127 kts 356°
2026-05-06 04:31 37.75613 -87.16827 1243 ft 140 kts 355°
2026-05-06 04:32 37.76576 -87.16946 1846 ft 129 kts 356°
2026-05-06 04:32 37.77383 -87.17046 2657 ft 106 kts 355°
2026-05-06 04:32 37.78133 -87.17144 2933 ft 130 kts 351°
2026-05-06 04:32 37.79139 -87.17288 3057 ft 158 kts 353°
2026-05-06 04:33 37.80307 -87.17393 3214 ft 178 kts 357°
2026-05-06 04:33 37.81596 -87.17453 3372 ft 192 kts 356°
2026-05-06 04:33 37.82972 -87.17526 3495 ft 204 kts 355°
2026-05-06 04:33 37.84418 -87.17566 3612 ft 212 kts 358°
2026-05-06 04:34 37.85911 -87.17575 3786 ft 217 kts 356°
2026-05-06 04:34 37.87343 -87.18067 3852 ft 213 kts 323°
2026-05-06 04:34 37.88118 -87.19536 3916 ft 200 kts 276°
2026-05-06 04:34 37.87797 -87.21164 3950 ft 194 kts 229°
2026-05-06 04:35 37.86601 -87.21858 3976 ft 199 kts 181°
2026-05-06 04:35 37.85363 -87.21116 4014 ft 213 kts 135°
2026-05-06 04:35 37.84452 -87.19628 4011 ft 213 kts 142°
2026-05-06 04:35 37.83148 -87.18825 3991 ft 209 kts 163°
2026-05-06 04:36 37.81778 -87.18256 3998 ft 206 kts 169°
2026-05-06 04:36 37.80372 -87.17912 4013 ft 207 kts 172°
2026-05-06 04:36 37.78951 -87.17629 4012 ft 206 kts 175°
2026-05-06 04:36 37.77526 -87.17433 4011 ft 205 kts 179°
2026-05-06 04:37 37.76122 -87.17271 4010 ft 202 kts 175°
2026-05-06 04:37 37.74755 -87.16855 4013 ft 202 kts 169°
2026-05-06 04:37 37.73410 -87.16378 3993 ft 198 kts 171°
2026-05-06 04:37 37.72051 -87.16254 4003 ft 196 kts 184°
2026-05-06 04:38 37.70682 -87.16248 4001 ft 197 kts 182°
2026-05-06 04:38 37.69313 -87.16245 3994 ft 197 kts 182°
2026-05-06 04:38 37.67947 -87.16210 3982 ft 196 kts 181°
2026-05-06 04:38 37.66595 -87.16154 3945 ft 194 kts 183°
2026-05-06 04:39 37.65231 -87.16140 3699 ft 203 kts 182°
2026-05-06 04:39 37.63794 -87.16103 3445 ft 209 kts 182°
2026-05-06 04:39 37.62337 -87.16036 3201 ft 210 kts 180°
2026-05-06 04:39 37.60877 -87.15894 2950 ft 212 kts 169°
2026-05-06 04:40 37.59652 -87.14862 2755 ft 217 kts 137°
2026-05-06 04:40 37.58685 -87.13433 2606 ft 212 kts 129°
2026-05-06 04:40 37.57751 -87.12028 2581 ft 207 kts 132°
2026-05-06 04:40 37.56790 -87.10691 2586 ft 205 kts 135°
2026-05-06 04:41 37.55825 -87.09366 2565 ft 203 kts 131°
2026-05-06 04:41 37.54887 -87.08063 2568 ft 200 kts 149°
2026-05-06 04:41 37.53587 -87.07887 2607 ft 192 kts 206°
2026-05-06 04:41 37.52762 -87.09117 2599 ft 190 kts 254°
2026-05-06 04:42 37.52995 -87.10713 2608 ft 194 kts 305°
2026-05-06 04:42 37.53885 -87.11996 2594 ft 195 kts 309°
2026-05-06 04:42 37.55058 -87.12788 2611 ft 199 kts 351°
2026-05-06 04:42 37.56426 -87.12948 2623 ft 201 kts 350°
2026-05-06 04:43 37.57644 -87.13721 2627 ft 198 kts 318°
2026-05-06 04:43 37.58694 -87.14841 2615 ft 198 kts 317°
2026-05-06 04:43 37.59748 -87.15954 2598 ft 198 kts 321°
2026-05-06 04:43 37.61049 -87.16448 2572 ft 201 kts
2026-05-06 04:44 37.62225 -87.15595 2426 ft 194 kts 55°
2026-05-06 04:44 37.62743 -87.14118 2456 ft 179 kts 59°
2026-05-06 04:44 37.63375 -87.12713 2530 ft 190 kts 69°
2026-05-06 04:44 37.63319 -87.11054 2547 ft 197 kts 117°
2026-05-06 04:45 37.62396 -87.09830 2559 ft 198 kts 144°
2026-05-06 04:45 37.61286 -87.08734 2581 ft 201 kts 145°
2026-05-06 04:45 37.60191 -87.07627 2571 ft 202 kts 141°
2026-05-06 04:45 37.59106 -87.06563 2595 ft 193 kts 158°
2026-05-06 04:46 37.57832 -87.06172 2608 ft 188 kts 174°
2026-05-06 04:46 37.56547 -87.05991 2586 ft 188 kts 178°
2026-05-06 04:46 37.55244 -87.05907 2565 ft 188 kts 182°
2026-05-06 04:46 37.54071 -87.06388 2598 ft 178 kts 230°
2026-05-06 04:47 37.53640 -87.07822 2613 ft 177 kts 257°
2026-05-06 04:47 37.53436 -87.09351 2619 ft 178 kts 259°
2026-05-06 04:47 37.53336 -87.10914 2643 ft 179 kts 270°
2026-05-06 04:47 37.53892 -87.12294 2615 ft 185 kts 317°
2026-05-06 04:48 37.54936 -87.13190 2606 ft 171 kts 325°
2026-05-06 04:48 37.55915 -87.13882 2603 ft 154 kts 328°
2026-05-06 04:48 37.56845 -87.14476 2577 ft 146 kts 330°
2026-05-06 04:48 37.57759 -87.15010 2614 ft 144 kts 332°
2026-05-06 04:49 37.58684 -87.15481 2604 ft 143 kts 336°
2026-05-06 04:49 37.59621 -87.15883 2578 ft 142 kts 338°
2026-05-06 04:49 37.60559 -87.15678 2556 ft 145 kts 34°
2026-05-06 04:49 37.61431 -87.15126 2599 ft 137 kts 15°
2026-05-06 04:50 37.62329 -87.14683 2592 ft 143 kts 33°
2026-05-06 04:50 37.62743 -87.13521 2602 ft 164 kts 97°
2026-05-06 04:50 37.62114 -87.12315 2606 ft 176 kts 152°
2026-05-06 04:50 37.60999 -87.11563 2619 ft 188 kts 158°
2026-05-06 04:51 37.59793 -87.10820 2613 ft 196 kts 157°
2026-05-06 04:51 37.58556 -87.10056 2592 ft 200 kts 155°
2026-05-06 04:51 37.57298 -87.09288 2565 ft 200 kts 165°
2026-05-06 04:51 37.56009 -87.09574 2549 ft 193 kts 213°
2026-05-06 04:52 37.55142 -87.10740 2576 ft 180 kts 239°
2026-05-06 04:52 37.54593 -87.12105 2576 ft 171 kts 257°
2026-05-06 04:52 37.54409 -87.13572 2570 ft 168 kts 264°
2026-05-06 04:52 37.54329 -87.15041 2588 ft 168 kts 272°
2026-05-06 04:53 37.54902 -87.16238 2626 ft 168 kts 332°
2026-05-06 04:53 37.55992 -87.16233 2634 ft 158 kts 19°
2026-05-06 04:53 37.56961 -87.15644 2634 ft 154 kts 32°
2026-05-06 04:53 37.57920 -87.15281 2621 ft 142 kts 343°
2026-05-06 04:54 37.58862 -87.15627 2606 ft 140 kts 341°
2026-05-06 04:54 37.59796 -87.15938 2560 ft 137 kts 345°
2026-05-06 04:54 37.60739 -87.16049 2552 ft 135 kts 353°
2026-05-06 04:54 37.61673 -87.16023 2559 ft 134 kts 360°
2026-05-06 04:55 37.62606 -87.15982 2570 ft 135 kts 360°
2026-05-06 04:55 37.63561 -87.15931 2325 ft 134 kts 355°
2026-05-06 04:55 37.64431 -87.16123 2022 ft 121 kts 347°
2026-05-06 04:55 37.65239 -87.16323 1783 ft 116 kts 352°
2026-05-06 04:56 37.66061 -87.16387 1549 ft 126 kts 357°
2026-05-06 04:56 37.66961 -87.16322 1293 ft 133 kts
2026-05-06 04:56 37.67859 -87.16261 1134 ft 127 kts 352°
2026-05-06 04:56 37.68697 -87.16448 1092 ft 115 kts 351°
2026-05-06 04:57 37.69457 -87.16538 1110 ft 96 kts 356°
2026-05-06 04:57 37.70071 -87.16543 995 ft 89 kts 353°
2026-05-06 04:57 37.70693 -87.16570 840 ft 87 kts 354°
2026-05-06 04:57 37.71258 -87.16599 785 ft 83 kts 352°
2026-05-06 04:58 37.71853 -87.16639 660 ft 89 kts 356°
2026-05-06 04:58 37.72477 -87.16658 560 ft 87 kts 354°
2026-05-06 04:58 37.73041 -87.16685 439 ft 77 kts 354°
2026-05-06 04:58 37.73537 -87.16710 408 ft 62 kts 355°
2026-05-06 04:59 37.73866 -87.16728 406 ft 20 kts 358°
2026-05-06 04:59 37.73932 -87.16731 406 ft 5 kts
2026-05-06 04:59 37.73991 -87.16682 406 ft 15 kts 49°
2026-05-06 04:59 37.74036 -87.16608 407 ft 9 kts 51°
2026-05-06 05:00 37.74011 -87.16551 406 ft 14 kts 180°
2026-05-06 05:00 37.73911 -87.16547 406 ft 15 kts 178°
2026-05-06 05:00 37.73809 -87.16540 406 ft 11 kts 165°
2026-05-06 05:00 37.73783 -87.16480 406 ft 7 kts 88°
2026-05-06 05:01 37.73792 -87.16429 406 ft 6 kts 60°
2026-05-06 05:01 37.73819 -87.16423 406 ft 3 kts 266°
2026-05-06 05:01 37.73819 -87.16425 406 ft 0 kts 262°